Regional Weather Roundup
Issued by NWS

Home | Current Version | Previous Version | Text Only | Print | Product List | Glossary Off
Versions: 1 2 3 4 5 6 7 8 9 10 11 12 13 14 15 16 17 18 19 20 21 22 23 24 25 26 27 28 29 30 31 32 33 34 35 36 37 38 39 40 41 42 43 44 45 46 47 48 49 50

000
ASUS43 KDMX 241906
RWRIA

WEATHER ROUNDUP FOR IOWA
NATIONAL WEATHER SERVICE DES MOINES IA
100 PM CST TUE JAN 24 2017

NOTE: "FAIR" INDICATES FEW OR NO CLOUDS BELOW 12,000 FEET WITH NO
SIGNIFICANT WEATHER AND/OR OBSTRUCTIONS TO VISIBILITY.

* - THESE STATIONS ARE NOT NWS STATIONS...THUS NOT UNDER NWS
QUALITY CONTROL.  THEY ALSO DO NOT REPORT WEATHER SUCH
AS PRECIPITATION OR FOG.

IAZ001>003-012>014-020>022-031>034-043>046-242000-
   NORTHWEST IOWA

CITY           SKY/WX    TMP DP  RH WIND       PRES   REMARKS
CARROLL *      CLOUDY    32  32 100 E16       29.69F FOG     WCI  21
CHEROKEE *     SNOW      31  31 100 E9        29.72F VSB 1/2 WCI  23
DENISON *      CLOUDY    32  30  93 E21G29    29.63F FOG     WCI  20
LE MARS *      LGT SNOW  32  30  93 NE12G20   29.71F VSB 3/4 WCI  23
ORANGE CITY *  LGT SNOW  30  30 100 E10G16    29.72F VSB 1   WCI  21
SHELDON *      CLOUDY    30  30 100 E14       29.74F WCI  20
SIOUX CITY     CLOUDY    34  31  88 E17       29.64F WCI  23
SPENCER        CLOUDY    30  29  96 E15       29.76F WCI  19
STORM LAKE *   SNOW      30  28  93 MISG      29.71F VSB 1/4
$$

IAZ055>058-069>071-079>083-090>094-242000-
   SOUTHWEST IOWA

CITY           SKY/WX    TMP DP  RH WIND       PRES   REMARKS
ATLANTIC *     PTSUNNY   32  30  93 E21G31    29.63F WCI  20
AUDUBON *      CLOUDY    32  28  86 E21       29.66F FOG     WCI  20
CLARINDA *     CLOUDY    36  32  87 E16G25    29.59F WCI  26
COUNCIL BLFS * CLOUDY    34  32  93 E20G28    29.57F WCI  22
CRESTON *      CLOUDY    32  32 100 E21G28    29.65F FOG     WCI  20
HARLAN  *      CLOUDY    32  32 100 E22G29    29.65F WCI  19
LAMONI         CLOUDY    34  29  82 E16G24    29.64F WCI  24
RED OAK *      CLOUDY    34  30  86 E20G29    29.58F WCI  22
SHENANDOAH *   CLOUDY    36  32  87 E16G29    29.57F WCI  26
$$

IAZ047>049-059>061-072>074-084-242000-
   CENTRAL IOWA

CITY           SKY/WX    TMP DP  RH WIND       PRES   REMARKS
AMES           LGT SNOW  32  31  96 E9        29.75F FOG     WCI  24
ANKENY *       CLOUDY    32  30  93 E16       29.75F WCI  21
BOONE *        LGT SNOW  30  32 100 E16       29.72F VSB 3/4 WCI  19
CHARITON *     CLOUDY    32  30  93 E14G22    29.71F WCI  22
DES MOINES     CLOUDY    32  29  88 E15       29.73F WCI  22
GRINNELL*      CLOUDY    31  29  94 SE10      29.81S FOG     WCI  22
KNOXVILLE *    CLOUDY    32  30  93 E14G22    29.72F FOG     WCI  22
MARSHALLTOWN   CLOUDY    32  29  88 SE12      29.79F WCI  23
NEWTON *       CLOUDY    30  30 100 E12G17    29.76F FOG     WCI  21
PELLA *        CLOUDY    32  30  94 MISG      29.76F FOG
PERRY *        CLOUDY    32  31  96 E16       29.70F FOG     WCI  21
$$

IAZ004>006-015-016-023>025-035-036-242000-
   NORTH CENTRAL IOWA

CITY           SKY/WX    TMP DP  RH WIND       PRES   REMARKS
ALGONA *       CLOUDY    32  30  93 E8G15     29.78F FOG     WCI  25
CLARION *      CLOUDY    32  32 100 E9        29.78F WCI  24
ESTHERVILLE    CLOUDY    29  29 100 E10       29.77F WCI  20
FORT DODGE *   CLOUDY    30  27  86 E15       29.76F WCI  19
MASON CITY     CLOUDY    30  27  88 SE9       29.81F WCI  22
FOREST CITY *  CLOUDY    30  30 100 E8        29.79F WCI  23
WEBSTER CITY * LGT SNOW  32 N/A N/A E13       29.75F VSB 3/4 WCI  22
IOWA FALLS *   CLOUDY    32  30  92 E12       29.79F WCI  23
$$

IAZ007>011-017>019-026>030-037>042-050>054-066-242000-
   NORTHEAST IOWA

CITY           SKY/WX    TMP DP  RH WIND       PRES   REMARKS
CEDAR RAPIDS   CLOUDY    32  29  88 SE7       29.80F WCI  26
CHARLES CITY * CLOUDY    32  32 100 SE9       29.81F WCI  24
CLINTON *      CLOUDY    36  31  82 SE7       29.83F WCI  30
DECORAH *      CLOUDY    34  30  86 E8        29.80F WCI  27
DUBUQUE        CLOUDY    33  30  88 SE6       29.82F WCI  28
MONTICELLO *   CLOUDY    34  30  86 SE8       29.82F WCI  27
OELWEIN *      CLOUDY    32  32 100 SE12      29.81F WCI  23
WATERLOO       CLOUDY    33  28  81 SE9       29.80F WCI  25
$$

IAZ064-065-067-068-078-242000-
   EAST CENTRAL IOWA

CITY           SKY/WX    TMP DP  RH WIND       PRES   REMARKS
DAVENPORT      CLOUDY    36  31  82 SE9       29.83F WCI  29
IOWA CITY      CLOUDY    35  30  82 SE8       29.83F WCI  29
MUSCATINE *    CLOUDY    36  32  87 SE6       29.84S WCI  31
QUAD CITIES    CLOUDY    38  31  76 SE9       29.82F WCI  31
$$

IAZ062-063-075>077-085>089-095>099-242000-
   SOUTHEAST IOWA

CITY           SKY/WX    TMP DP  RH WIND       PRES   REMARKS
BURLINGTON     CLOUDY    37  32  82 SE8       29.81F WCI  31
FAIRFIELD *    CLOUDY    32  30  93 SE9       29.80F FOG     WCI  24
FORT MADISON * CLOUDY    37  36  93 SE7       29.81F WCI  32
KEOKUK *       CLOUDY    37 N/A N/A E10       29.78F WCI  30
OSKALOOSA *    CLOUDY    31  30  94 E13       29.78F FOG     WCI  22
CENTERVILLE *  CLOUDY    32  32 100 E15       29.73F WCI  22
OTTUMWA        CLOUDY    32  29  88 E13       29.78F WCI  22
WASHINGTON *   CLOUDY    34  32  93 SE13      29.81F WCI  25
$$

ABBREVIATIONS USED IN REMARKS
   TC - TEMPERATURES IN CELSIUS
  WCI - WIND CHILL INDEX
   HX - HEAT INDEX
  VSB - VISIBILITY
$$





USA.gov is the U.S. government's official web portal to all federal, state and local government web resources and services.